AirNav   Everest Fuels
 
 679 users online  

PA16 Shadyside Health Education & Research Corp Heliport
Pittsburgh, Pennsylvania, USA

GOING TO PITTSBURGH?


FAA INFORMATION EFFECTIVE 18 JUNE 2020

Location

FAA Identifier: PA16
Lat/Long: 40-27-15.4400N 079-56-22.7800W
40-27.257333N 079-56.379667W
40.4542889,-79.9396611
(estimated)
Elevation: 1037 ft. / 316 m (estimated)
Variation: 08W (1990)
From city: 3 miles NE of PITTSBURGH, PA
Time zone: UTC -4 (UTC -5 during Standard Time)
Zip code: 15232

Heliport Operations

Heliport use: Private use, MEDICAL USE.
Activation date: 12/1992
Control tower: no
ARTCC: CLEVELAND CENTER
FSS: ALTOONA FLIGHT SERVICE STATION
Attendance: CONTINUOUS
Wind indicator: lighted
Segmented circle: no
Lights: FOR PERIMETER LGTS CALL 412-623-2990.

Heliport Communications

WX AWOS-A at 42PN (2.9 nm W): PHONE 412-442-2213
WX ASOS at AGC (6 nm S): 120.55 (412-466-8968)
WX ASOS at PIT (14 nm W): PHONE 412-472-0145
WX AWOS-3 at FWQ (15 nm S): 118.475 (724-379-5815)
WX AWOS-3PT at BTP (19 nm N): 121.450 (724-586-6434)

Nearby radio navigation aids

VOR radial/distance  VOR name  Freq  Var
AGCr033/11.5ALLEGHENY VOR/DME110.0009W
EWCr159/25.5ELLWOOD CITY VOR/DME115.8008W
HLGr075/31.0WHEELING VOR/DME112.2007W
IHDr323/39.2INDIAN HEAD VORTAC108.2006W

Heliport Services

Runway Information

Helipad H1

Dimensions: 48 x 48 ft. / 15 x 15 m
Surface: mats
ROOFTOP.
Runway edge lights: PERI
Latitude: 40-27.257333N
Longitude: 079-56.379667W
Elevation: 1037.0 ft.
Traffic pattern: leftleft

Heliport Ownership and Management from official FAA records

Ownership: Privately-owned
Owner: SHADYSIDE HOSPITAL
5230 CENTRE AVENUE
PITTSBURGH, PA 15232
Phone (412) 623-2990
Manager: HARVEY COLE
5230 CENTRE AVENUE
PITTSBURGH, PA 15232
Phone (412) 623-3091

Additional Remarks

FOR CD CTC PITTSBURGH APCH AT 412-472-5591

Instrument Procedures

There are no published instrument procedures at PA16.

Some nearby airports with instrument procedures:

KAGC - Allegheny County Airport (6 nm S)
G05 - Finleyville Airpark (13 nm S)
KPIT - Pittsburgh International Airport (14 nm W)
KFWQ - Rostraver Airport (15 nm S)
KBTP - Pittsburgh/Butler Regional Airport (19 nm N)
 
Loc | Ops | Rwys | IFR | FBO | Links
Com | Nav | Svcs | Stats | Notes
Area around PA16 (Shadyside Health Education & Research Corp Heliport)
 
Road maps at: MapQuest Bing Google
 
Aerial photo
No photo
 
Sectional chart

 
Airport distance calculator
Flying to Shadyside Health Education & Research Corp Heliport? Find the distance to fly.

From to PA16

Sunrise and sunset
Times for 10-Jul-2020
 Local
(UTC-4)
 Zulu
(UTC)
Morning civil twilight05:2809:28
Sunrise06:0010:00
Sunset20:5000:50
Evening civil twilight21:2301:23

Current date and time
Zulu (UTC)  11-Jul-2020 03:57:22
Local (UTC-4)  10-Jul-2020 23:57:22
 
METAR
KAGC 
6nm S 
110353Z 17006KT 10SM BKN037 BKN046 21/20 A2977 RMK AO2 SLP076 T02060200
KPIT 
15nm W 
110351Z 17004KT 10SM SCT040 BKN055 21/19 A2977 RMK AO2 SLP079 T02060194
KP53 
15nm S 
110256Z AUTO 18005KT 17/16 A2982 RMK AO1 SLP098 T01670156 57006
KBTP 
19nm N 
110342Z AUTO 17004KT 9SM FEW003 BKN045 19/19 A2978 RMK AO2
TAF
KAGC 
6nm S 
102308Z 1023/1118 19005KT P6SM BKN035 TEMPO 1023/1024 1/2SM +TSRA BKN035CB FM110700 21004KT P6SM VCSH BKN015 FM111600 24010G19KT P6SM -SHRA BKN025
KPIT 
15nm W 
102307Z 1023/1124 19005KT P6SM SCT035 TEMPO 1023/1024 6SM -TSRA BKN025CB FM110700 21004KT P6SM VCSH BKN015 FM111600 24010G19KT P6SM -SHRA BKN025 FM112100 28007KT P6SM FEW035
NOTAMs
Click for the latest NOTAMs
NOTAMs are issued by the DoD/FAA and will open in a separate window not controlled by AirNav.

 

 
 

Would you like to see your business listed on this page?

 If your business provides an interesting product or service to pilots, flight crews, aircraft, or users of the Shadyside Health Education & Research Corp Heliport, you should consider listing it here.  To start the listing process, click on the button below
 
Add a business
 

Other Pages about Shadyside Health Education & Research Corp Heliport

Update a link
 
Copyright © AirNav, LLC. All rights reserved. Privacy Policy  Contact